Tracking 26321 objects as of 28-Nov-2022
HD Live streaming from Space Station
objects crossing your sky now

NOAA 16 DEB

Track NOAA 16 DEB now!
10-day predictions


NORAD ID: 41518
Int'l Code: 2000-055MS
Perigee: 795.7 km
Apogee: 833.6 km
Inclination: 98.8 °
Period: 101.0 minutes
Semi major axis: 7185 km
RCS: Unknown
Launch date: September 21, 2000
Source: United States (US)
Launch site: AIR FORCE WESTERN TEST RANGE (AFWTR)

Note: This is SATELLITE DEBRIS
aabbcc
Your satellite tracking list
Your tracking list is empty




NASA's NSSDC Master Catalog

Two Line Element Set (TLE):
1 41518U 00055MS  22332.23275165  .00005055  00000-0  21577-2 0  9991
2 41518  98.8388  72.7526 0026398  33.6038 326.6809 14.25291664342604
Source of the keplerian elements: AFSPC